Location: Bartlow
(52.0833°N, 0.3167°E)
Time: 20:02:11
(UTC+00:00)

Cosmos 1937 Rocket - Pass Details

Date: 26 September 2023
Orbit: 744 x 779 km, 74.0° (Epoch: 10 December)

Event Time Altitude Azimuth Distance (km) Brightness Sun altitude
Exits shadow 04:43:53 15° 254° (WSW) 1,957 4.9 -11.0°
Maximum altitude 04:47:26 31° 309° (NW) 1,320 4.4 -10.5°
Drops below altitude 10° 04:52:01 10° 11° (NNE) 2,298 6.3 -9.8°
Sets 04:54:41 0° 22° (NNE) 3,233 7.2 -9.4°
